Tracking 35055 objects as of 19-Aug-2026
HD Live streaming from Space Station
objects crossing your sky now

REAL

Track REAL now!
10-day predictions
REAL is classified as:


NORAD ID: 64875
Int'l Code: 2025-154G
Launch date: July 23, 2025
Source: United States (US)
Launch site: AIR FORCE WESTERN TEST RANGE (AFWTR)

Uplink (MHz):
Downlink (MHz): 450.060/2202.000
Beacon (MHz):
Mode: 9k6 GFSK FM
Call sign: WR9XTX
Status: Active

Your satellite tracking list
Your tracking list is empty




NASA's NSSDC Master Catalog

Two Line Element Set (TLE):
1 64875U 25154G   26230.90974256  .00023008  00000-0  67455-3 0  9995
2 64875  97.3974 299.3854 0001862 119.6252 240.5177 15.35195176 59669
Source of the keplerian elements: AFSPC